Quillayute, WA

6:20 PM PDT on May 25, 2017 (GMT -0700)
Quillayute

Weather History for KUIL - November, 2012

Change the Weather History Date:

Saturday, November 17, 2012

  Actual Average Record
Temperature  
Mean Temperature 49 °F 44 °F  
Max Temperature 55 °F 50 °F 60 °F (2008)
Min Temperature 43 °F 38 °F 24 °F (2014)
Degree Days  
Heating Degree Days 16 21  
Month to date heating degree days 334  
Since 1 July heating degree days 1424  
Cooling Degree Days 0 0  
Month to date cooling degree days 0  
Year to date cooling degree days 19  
Moisture  
Dew Point 46 °F    
Average Humidity 97    
Maximum Humidity 100    
Minimum Humidity 54    
Precipitation  
Precipitation 1.37 in 0.53 in 1.94 in (1995)
Month to date precipitation 8.62  
Year to date precipitation 79.65  
Sea Level Pressure  
Sea Level Pressure 29.49 in    
Wind  
Wind Speed 10 mph (South)    
Max Wind Speed 20 mph    
Max Gust Speed 38 mph    
Visibility 3 miles    
Events Rain    
T = Trace of Precipitation, MM = Missing Value Source: NWS Daily Summary

Daily Weather History Graph

Daily Weather History Graph

Search for Another Location

Airport or City:

Trip Planner

Search our weather history database for the weather conditions in past years. The results will help you decide how hot, cold, wet, or windy it might be!

Date:

Astronomy

Nov. 17, 2012 Rise Set
Actual Time 7:28 AM PST 4:37 PM PST
Civil Twilight 6:54 AM PST 5:12 PM PST
Nautical Twilight 6:16 AM PST 5:49 PM PST
Astronomical Twilight 5:39 AM PST 6:26 PM PST
Moon 11:17 AM PST (11/17) 8:56 PM PST (11/17)
Length of Visible Light 10h 17m
Length of Day
9h 09m
Waxing Crescent, 21% of the Moon is Illuminated
Nov 17
Waxing Crescent
Nov 20
First Quarter
Nov 28
Full
Dec 6
Last Quarter
Dec 13
New

Hourly Weather History & Observations

Time (PST) Temp. Windchill Dew Point Humidity Pressure Visibility Wind Dir Wind Speed Gust Speed Precip Events Conditions
12:53 AM 54.0 °F - 50.0 °F 86% 29.54 in 6.0 mi SSE 15.0 mph 29.9 mph N/A   Overcast
1:53 AM 54.0 °F - 51.1 °F 90% 29.51 in 6.0 mi South 12.7 mph 25.3 mph 0.00 in Rain Light Rain
2:15 AM 53.6 °F - 53.6 °F 100% 29.51 in 2.5 mi SSE 15.0 mph 27.6 mph 0.01 in Rain Light Rain
2:19 AM 53.6 °F - 53.6 °F 100% 29.50 in 5.0 mi Variable 6.9 mph 27.6 mph 0.01 in Rain Light Rain
2:53 AM 53.1 °F - 52.0 °F 96% 29.49 in 7.0 mi SSE 13.8 mph 28.8 mph 0.01 in   Overcast
3:01 AM 53.6 °F - 51.8 °F 94% 29.49 in 5.0 mi South 8.1 mph 28.8 mph 0.00 in Rain Light Rain
3:18 AM 53.6 °F - 51.8 °F 94% 29.48 in 6.0 mi South 12.7 mph 27.6 mph 0.01 in   Overcast
3:30 AM 53.6 °F - 51.8 °F 94% 29.47 in 6.0 mi SSE 12.7 mph 27.6 mph 0.01 in Rain Light Rain
3:53 AM 53.1 °F - 51.1 °F 93% 29.46 in 7.0 mi South 9.2 mph 25.3 mph 0.01 in   Overcast
4:53 AM 54.0 °F - 51.1 °F 90% 29.42 in 7.0 mi SSE 9.2 mph 26.5 mph 0.00 in   Overcast
5:53 AM 53.1 °F - 51.1 °F 93% 29.40 in 7.0 mi SSE 11.5 mph 34.5 mph 0.01 in   Overcast
6:33 AM 53.6 °F - 51.8 °F 94% 29.39 in 1.8 mi SSE 11.5 mph 26.5 mph 0.01 in Rain Light Rain
6:42 AM 51.8 °F - 51.8 °F 100% 29.39 in 1.2 mi South 9.2 mph 23.0 mph 0.04 in Rain Light Rain
6:53 AM 48.9 °F - 48.9 °F 100% 29.42 in 0.8 mi SSW 12.7 mph 25.3 mph 0.18 in Rain Heavy Rain
6:59 AM 48.2 °F - 46.4 °F 93% 29.42 in 1.0 mi SW 15.0 mph 24.2 mph 0.05 in Rain Light Rain
7:02 AM 48.2 °F - 46.4 °F 93% 29.42 in 2.0 mi SSW 13.8 mph 20.7 mph 0.05 in Rain Light Rain
7:09 AM 48.2 °F - 46.4 °F 93% 29.42 in 2.0 mi SSW 8.1 mph 18.4 mph 0.06 in Rain Rain
7:11 AM 46.4 °F 41.9 °F 46.4 °F 100% 29.42 in 1.8 mi SSW 9.2 mph 18.4 mph 0.07 in Rain Rain
7:33 AM 48.2 °F - 48.2 °F 100% 29.42 in 2.5 mi South 5.8 mph - 0.14 in Rain Rain
7:42 AM 48.2 °F - 48.2 °F 100% 29.42 in 1.8 mi SSW 5.8 mph - 0.16 in Rain Light Rain
7:53 AM 48.0 °F - 48.0 °F 100% 29.43 in 1.5 mi South 8.1 mph 16.1 mph 0.20 in Rain Rain
8:17 AM 48.2 °F - 48.2 °F 100% 29.44 in 1.8 mi SSW 10.4 mph 20.7 mph 0.07 in Rain Rain
8:34 AM 48.2 °F - 46.4 °F 93% 29.45 in 1.2 mi SSW 12.7 mph 21.9 mph 0.12 in Rain Rain
8:53 AM 46.9 °F - 46.9 °F 100% 29.46 in 1.2 mi SSW 9.2 mph 18.4 mph 0.17 in Rain Rain
9:16 AM 46.4 °F 41.5 °F 46.4 °F 100% 29.45 in 1.2 mi South 10.4 mph 18.4 mph 0.07 in Rain Rain
9:26 AM 46.4 °F 40.7 °F 46.4 °F 100% 29.46 in 1.2 mi South 12.7 mph 19.6 mph 0.10 in Rain Rain
9:36 AM 46.4 °F 40.7 °F 46.4 °F 100% 29.47 in 1.5 mi SSW 12.7 mph 20.7 mph 0.11 in Rain Light Rain
9:46 AM 46.4 °F 41.1 °F 46.4 °F 100% 29.47 in 1.2 mi SSW 11.5 mph 17.3 mph 0.14 in Rain Rain
9:53 AM 46.9 °F - 46.0 °F 97% 29.47 in 1.5 mi South 10.4 mph 18.4 mph 0.15 in Rain Light Rain
10:05 AM 46.4 °F 41.9 °F 46.4 °F 100% 29.48 in 1.2 mi South 9.2 mph - 0.01 in Rain Light Rain
10:13 AM 46.4 °F 42.9 °F 46.4 °F 100% 29.49 in 1.0 mi South 6.9 mph - 0.03 in Rain Rain
10:53 AM 45.0 °F 41.2 °F 44.1 °F 97% 29.51 in 1.2 mi South 6.9 mph - 0.15 in Rain Light Rain
11:09 AM 44.6 °F 39.2 °F 44.6 °F 100% 29.49 in 2.0 mi SE 10.4 mph - 0.01 in Rain Light Rain
11:17 AM 44.6 °F 40.2 °F 44.6 °F 100% 29.48 in 3.0 mi SE 8.1 mph 20.7 mph 0.02 in Rain Light Rain
11:31 AM 44.6 °F 40.2 °F 44.6 °F 100% 29.49 in 1.8 mi SSE 8.1 mph 16.1 mph 0.03 in Rain Light Rain
11:53 AM 44.1 °F 39.0 °F 44.1 °F 100% 29.49 in 2.0 mi SE 9.2 mph 16.1 mph 0.07 in Rain Light Rain
12:02 PM 44.6 °F 40.2 °F 44.6 °F 100% 29.49 in 3.0 mi SSE 8.1 mph 21.9 mph 0.00 in Rain Light Rain
12:32 PM 44.6 °F 40.2 °F 42.8 °F 93% 29.49 in 5.0 mi SE 8.1 mph 17.3 mph 0.00 in   Overcast
12:53 PM 44.1 °F 39.5 °F 43.0 °F 96% 29.49 in 5.0 mi SE 8.1 mph - 0.00 in Rain Light Rain
1:00 PM 44.6 °F 40.7 °F 42.8 °F 93% 29.50 in 2.5 mi SSE 6.9 mph - 0.01 in Rain Light Rain
1:08 PM 44.6 °F 40.2 °F 42.8 °F 93% 29.50 in 1.2 mi SSE 8.1 mph - 0.03 in Rain Rain
1:17 PM 44.6 °F 40.7 °F 42.8 °F 93% 29.51 in 1.8 mi Variable 6.9 mph - 0.04 in Rain Light Rain
1:25 PM 44.6 °F 41.4 °F 44.6 °F 100% 29.50 in 2.0 mi SE 5.8 mph - 0.06 in Rain Light Rain
1:40 PM 44.6 °F 39.2 °F 42.8 °F 93% 29.50 in 4.0 mi SSE 10.4 mph 16.1 mph 0.06 in Rain Light Rain
1:53 PM 44.1 °F 37.4 °F 43.0 °F 96% 29.49 in 2.0 mi SSE 13.8 mph 21.9 mph 0.07 in Rain Light Rain
1:56 PM 44.6 °F 39.2 °F 42.8 °F 93% 29.50 in 1.2 mi SSE 10.4 mph 21.9 mph 0.00 in Rain Rain
2:12 PM 44.6 °F 40.2 °F 42.8 °F 93% 29.50 in 1.2 mi SE 8.1 mph 18.4 mph 0.03 in Rain Light Rain
2:17 PM 44.6 °F 42.2 °F 42.8 °F 93% 29.50 in 2.0 mi SW 4.6 mph 18.4 mph 0.03 in Rain Light Rain
2:20 PM 44.6 °F - 42.8 °F 93% 29.50 in 4.0 mi Calm Calm - 0.03 in Rain Light Rain
2:41 PM 44.6 °F 40.2 °F 44.6 °F 100% 29.50 in 1.8 mi SE 8.1 mph 17.3 mph 0.04 in Rain Light Rain
2:44 PM 44.6 °F 39.7 °F 44.6 °F 100% 29.50 in 2.0 mi SE 9.2 mph 17.3 mph 0.04 in Rain Light Rain
2:53 PM 45.0 °F 40.6 °F 44.1 °F 97% 29.50 in 5.0 mi SE 8.1 mph 16.1 mph 0.04 in   Mostly Cloudy
3:33 PM 44.6 °F 40.7 °F 44.6 °F 100% 29.50 in 5.0 mi SE 6.9 mph - 0.00 in   Mostly Cloudy
3:53 PM 45.0 °F 42.6 °F 44.1 °F 97% 29.51 in 5.0 mi Variable 4.6 mph - 0.00 in Rain Light Rain
4:07 PM 44.6 °F 40.7 °F 44.6 °F 100% 29.50 in 5.0 mi SE 6.9 mph 19.6 mph 0.00 in Rain Light Rain
4:14 PM 44.6 °F 39.7 °F 42.8 °F 93% 29.50 in 5.0 mi SSE 9.2 mph 19.6 mph 0.00 in   Overcast
4:28 PM 44.6 °F 39.2 °F 44.6 °F 100% 29.50 in 4.0 mi SSE 10.4 mph - 0.00 in   Mostly Cloudy
4:53 PM 45.0 °F 38.9 °F 44.1 °F 97% 29.50 in 3.0 mi SE 12.7 mph 18.4 mph 0.00 in Rain Light Rain
5:05 PM 44.6 °F 38.1 °F 44.6 °F 100% 29.49 in 2.5 mi SE 13.8 mph 21.9 mph 0.03 in Rain Light Rain
5:11 PM 44.6 °F 38.1 °F 44.6 °F 100% 29.49 in 5.0 mi SE 13.8 mph 20.7 mph 0.03 in Rain Light Rain
5:40 PM 44.6 °F 38.8 °F 44.6 °F 100% 29.49 in 4.0 mi SSE 11.5 mph 25.3 mph 0.03 in Rain Light Rain
5:48 PM 44.6 °F 39.2 °F 44.6 °F 100% 29.48 in 1.8 mi SE 10.4 mph 19.6 mph 0.05 in Rain Heavy Rain
5:53 PM 45.0 °F 40.6 °F 45.0 °F 100% 29.50 in 1.5 mi South 8.1 mph 18.4 mph 0.07 in Rain Rain
6:00 PM 44.6 °F 39.2 °F 44.6 °F 100% 29.51 in 1.2 mi South 10.4 mph 18.4 mph 0.04 in Rain Heavy Rain
6:14 PM 44.6 °F 39.7 °F 44.6 °F 100% 29.51 in 2.0 mi SSE 9.2 mph 23.0 mph 0.10 in Rain Light Rain
6:22 PM 44.6 °F 40.7 °F 44.6 °F 100% 29.51 in 5.0 mi SSE 6.9 mph 18.4 mph 0.11 in Rain Light Rain
6:31 PM 44.6 °F 40.7 °F 44.6 °F 100% 29.52 in 1.8 mi Variable 6.9 mph - 0.12 in Rain Rain
6:41 PM 44.6 °F 38.8 °F 44.6 °F 100% 29.52 in 4.0 mi South 11.5 mph 21.9 mph 0.17 in Rain Light Rain
6:53 PM 45.0 °F 38.9 °F 45.0 °F 100% 29.52 in 5.0 mi SSE 12.7 mph 26.5 mph 0.17 in   Overcast
6:59 PM 44.6 °F 38.4 °F 44.6 °F 100% 29.52 in 2.5 mi South 12.7 mph 26.5 mph 0.01 in Rain Light Rain
7:05 PM 44.6 °F 40.7 °F 44.6 °F 100% 29.52 in 3.0 mi Variable 6.9 mph 19.6 mph 0.03 in Rain Light Rain
7:12 PM 46.4 °F 42.4 °F 44.6 °F 93% 29.53 in 4.0 mi SSW 8.1 mph - 0.03 in Rain Light Rain
7:21 PM 46.4 °F 41.5 °F - N/A% 29.53 in 4.0 mi SW 10.4 mph 16.1 mph 0.03 in Rain Light Rain
7:30 PM 46.4 °F 42.4 °F - N/A% 29.53 in 6.0 mi SSW 8.1 mph 16.1 mph 0.03 in   Haze
7:53 PM 46.0 °F 41.4 °F 46.0 °F 100% 29.55 in 6.0 mi SSW 9.2 mph 17.3 mph 0.04 in   Mostly Cloudy
8:14 PM 46.4 °F 40.1 °F 46.4 °F 100% 29.56 in 2.5 mi SW 15.0 mph 24.2 mph 0.00 in Rain Light Rain
8:17 PM 46.4 °F 39.8 °F 46.4 °F 100% 29.56 in 1.8 mi SW 16.1 mph 24.2 mph 0.02 in Rain Rain
8:24 PM 44.6 °F 40.2 °F 44.6 °F 100% 29.56 in 3.0 mi SW 8.1 mph 23.0 mph 0.02 in Rain Light Rain
8:32 PM 44.6 °F 40.7 °F 44.6 °F 100% 29.56 in 5.0 mi SSW 6.9 mph - 0.02 in   Scattered Clouds
8:53 PM 45.0 °F 42.6 °F - N/A% 29.57 in 5.0 mi SSW 4.6 mph - 0.02 in   Haze
9:53 PM 43.0 °F 41.3 °F - N/A% 29.57 in 5.0 mi South 3.5 mph - N/A   Haze
10:53 PM 45.0 °F 40.6 °F - N/A% 29.58 in 6.0 mi South 8.1 mph - 0.01 in   Haze
11:53 PM 45.0 °F 40.1 °F - N/A% 29.60 in 6.0 mi SW 9.2 mph - N/A   Haze